Wind_Speed
8 9 10 11 11 11 8 3 2 3 2 7 8 7 10 11 11 11 12 12 9 10 11 13 15 13 13 14 15 18 14 11 9 7 7 10 18 21 21 21 21 21 22 20 19 20 18 20 23 24 24 23 24 23 21 20 21 21 21 21 21 22 21 21 21 21 20 20 20 19 20 19 19 18 17 17 16 16 16 15 15 14 14 13 13 13 12 12 12 11 12 12 12 11 11 11 10
8 11 14 15 13 9 4 3 1 3 6 8 9 9 11 11 12 13 14 14 10 11 12 14 16 17 19 17 17 20 18 17 18 13 12 22 23 21 23 21 21 21 21 19 19 19 17 20 23 23 23 24 24 22 20 20 20 20 20 20 21 21 20 20 20 20 19 19 19 19 19 19 18 17 17 16 15 15 14 14 14 13 13 12 12 12 12 11 11 11 11 11 11 10 10 9 9
8 12 11 9 9 7 3 4 0 6 8 9 9 10 11 12 13 14 14 14 11 12 13 14 14 15 18 18 17 18 15 17 22 15 14 25 19 18 24 22 22 20 20 19 18 19 17 19 22 23 23 23 23 22 20 20 20 19 19 19 20 20 19 19 19 18 18 18 17 17 17 17 17 16 16 15 14 14 14 13 13 12 12 12 11 11 12 11 11 11 11 11 10 10 9 8 8
6 10 8 2 4 4 3 3 3 6 8 8 8 10 12 12 13 13 12 13 12 12 13 13 13 12 16 19 16 15 13 14 21 17 12 20 21 24 27 24 23 20 20 19 18 19 19 20 22 22 23 23 23 22 20 19 19 18 18 18 18 18 18 18 17 17 16 16 15 15 15 15 15 14 14 14 13 13 13 13 12 12 12 12 11 11 11 11 11 10 10 10 9 9 8 7 7
8 13 11 4 2 2 3 1 5 7 8 8 8 10 12 13 14 13 12 14 14 12 13 12 12 13 15 15 11 10 12 13 19 21 16 21 28 31 27 25 22 20 20 18 18 19 19 22 21 21 23 22 22 21 19 18 17 17 17 17 18 17 17 16 16 15 15 15 14 14 14 14 14 13 13 13 12 13 12 12 12 11 12 12 12 12 11 10 10 9 9 9 8 7 6 6 5
13 14 12 8 3 4 2 4 8 8 10 9 8 11 14 14 14 14 14 15 15 14 15 14 13 14 13 13 11 10 13 13 17 21 22 26 31 32 27 24 22 21 21 19 19 19 20 22 21 21 21 22 21 20 18 16 16 16 16 16 16 16 16 15 14 14 14 14 14 13 13 13 12 12 11 11 11 12 12 11 12 11 11 11 11 11 10 10 9 8 8 7 7 6 5 5 4
10 9 5 5 4 3 1 8 9 9 11 11 11 12 13 13 13 14 15 14 15 15 15 14 14 14 12 11 12 15 18 16 17 22 26 28 31 30 27 25 24 22 21 19 20 20 20 21 21 21 20 20 20 18 17 16 15 15 15 15 15 15 15 14 14 13 14 13 13 13 12 12 11 11 10 11 10 10 10 10 10 11 11 10 10 9 8 8 7 7 7 6 6 5 4 4 3
5 3 2 3 4 2 5 9 9 9 11 12 12 12 12 13 13 13 13 12 12 14 14 15 15 14 14 13 12 15 21 22 23 26 28 29 30 28 25 25 25 24 22 20 20 21 20 20 21 21 20 19 18 17 16 16 15 15 14 14 14 15 14 14 13 13 13 12 12 12 11 11 10 10 10 10 9 9 9 9 9 9 9 8 8 7 6 6 5 6 6 5 5 4 3 3 2
4 2 1 2 4 2 7 8 10 10 11 12 11 12 13 14 13 13 14 13 12 13 15 15 15 14 15 16 14 14 20 24 26 26 25 27 29 28 26 24 25 25 23 21 21 21 20 20 21 20 20 19 19 17 16 16 14 14 14 14 14 14 14 13 13 12 12 11 11 11 10 10 9 9 9 9 9 8 8 8 8 7 7 6 5 5 4 3 3 3 4 4 3 3 2 1 1
4 2 1 1 3 4 7 7 9 10 12 12 12 13 13 13 12 13 14 14 14 15 17 16 15 17 16 16 13 12 18 23 24 24 23 23 24 26 26 24 25 26 24 22 20 19 20 20 20 20 19 19 19 18 16 16 15 15 14 14 14 13 14 12 12 12 11 11 10 10 10 9 9 9 9 8 8 8 7 7 6 6 5 4 3 2 2 1 1 1 1 1 0 0 1 0 1
2 3 1 1 3 5 4 6 8 10 12 11 12 12 11 12 13 14 15 15 16 16 16 14 14 17 17 14 10 14 21 22 22 22 22 22 22 24 26 25 25 26 25 24 21 19 19 18 18 18 18 18 17 17 16 16 15 15 14 14 14 13 12 12 11 11 11 11 10 10 9 9 9 9 9 8 7 7 7 6 5 4 3 2 1 0 1 0 1 1 1 2 2 3 3 2 2
2 3 2 2 3 4 2 6 9 9 12 12 11 11 9 11 13 14 15 15 15 15 14 11 12 14 15 13 9 16 21 20 22 21 20 21 22 21 23 24 24 25 25 25 24 22 21 19 18 17 18 17 17 17 16 15 15 14 14 13 13 12 11 11 11 10 10 10 10 9 9 9 9 8 7 7 7 7 6 5 4 3 2 1 1 1 0 1 2 2 3 3 4 5 5 5 4
4 6 2 5 4 4 4 5 7 7 9 10 9 11 10 10 12 13 13 14 14 15 14 12 13 12 13 12 10 14 17 19 22 20 20 21 21 20 20 23 23 23 24 24 25 24 23 21 19 18 18 17 16 16 15 15 14 14 14 13 12 12 11 10 10 10 10 9 9 9 8 8 7 7 6 6 5 5 5 4 4 3 2 2 2 2 2 3 4 4 5 5 5 6 7 7 6
5 7 2 6 6 6 5 1 3 5 7 8 9 11 10 9 10 10 12 16 15 13 13 13 14 13 12 11 10 10 13 20 22 18 19 21 21 21 21 21 22 22 22 22 24 23 22 21 20 20 19 17 17 15 15 14 14 14 14 13 12 11 10 10 9 9 9 8 8 7 7 6 6 5 5 5 4 4 4 3 3 3 3 3 3 3 4 5 6 6 7 7 7 7 8 8 8
5 5 3 4 6 8 7 4 3 6 6 8 10 11 10 9 10 10 13 15 13 12 14 13 11 11 11 11 10 11 16 21 22 19 20 22 21 21 21 20 20 20 20 21 21 21 21 20 20 20 19 17 17 15 15 14 14 14 13 12 11 10 10 9 9 8 8 7 7 6 5 5 4 4 4 4 3 3 3 3 3 4 4 4 5 5 5 7 8 8 8 8 8 9 9 9 9
4 5 4 1 4 7 9 6 3 6 7 9 10 11 11 11 10 11 12 11 10 12 12 9 9 10 12 12 14 19 21 21 21 21 21 22 21 20 20 19 19 19 19 19 19 19 20 20 20 19 18 17 17 15 14 14 14 13 12 12 11 10 9 9 8 8 7 7 6 6 5 4 3 2 3 3 3 4 4 3 4 6 5 6 7 7 7 8 9 10 10 9 10 10 10 10 10
4 5 5 1 3 4 8 8 4 6 9 10 11 10 11 11 10 10 11 11 9 9 9 9 10 13 14 15 21 25 23 21 20 21 21 20 19 18 18 17 18 17 17 17 18 18 18 19 19 18 18 18 17 15 14 14 14 13 13 12 11 10 10 9 9 8 7 7 6 6 5 4 3 3 4 4 4 6 6 4 6 8 6 7 9 9 10 10 10 11 11 11 11 11 12 12 11
4 4 2 1 3 5 7 11 8 8 11 10 10 9 10 11 11 9 7 10 10 8 11 14 15 15 18 22 25 24 23 22 20 19 19 17 16 15 16 16 15 16 16 16 16 17 17 18 18 18 19 18 17 17 15 14 15 14 12 12 11 10 10 9 9 8 7 7 6 5 5 4 4 6 6 5 6 6 7 7 7 8 8 9 11 12 12 12 12 12 13 13 12 12 13 13 12
4 2 2 4 5 6 6 11 10 9 11 10 10 10 11 12 12 9 5 9 11 12 14 15 18 18 20 23 23 23 22 22 20 18 17 16 16 14 14 14 14 15 15 15 15 16 16 17 17 17 18 18 18 17 16 14 14 13 12 11 10 10 9 9 8 8 8 8 7 6 7 6 7 7 6 6 7 6 7 8 9 9 10 11 11 12 14 13 12 12 12 13 12 12 12 11 10
4 1 2 4 6 6 7 10 10 10 11 11 10 9 10 10 11 10 7 8 10 11 13 14 17 19 19 20 21 21 21 20 19 18 16 15 15 14 14 14 14 14 14 13 14 14 14 15 15 16 16 16 15 14 14 13 14 13 12 12 11 10 9 9 10 9 9 9 7 7 8 7 8 7 5 6 6 6 8 8 9 10 12 12 10 11 12 11 10 11 10 10 10 9 10 10 10
1 4 3 5 6 6 9 9 10 10 11 11 9 9 9 9 10 10 9 8 8 10 12 15 17 19 19 18 19 19 18 18 17 17 16 15 14 13 13 13 13 13 14 13 13 13 13 14 13 14 14 14 13 12 12 12 14 12 11 12 11 11 10 10 11 9 9 9 8 7 7 6 7 6 5 4 4 6 7 8 8 9 11 12 11 11 11 9 9 9 8 8 9 9 9 11 12
1 6 4 7 7 7 11 9 10 10 10 10 9 10 9 9 9 11 11 3 3 9 13 17 18 18 19 18 18 17 16 16 15 15 16 16 15 13 13 13 13 12 12 13 13 13 12 13 13 13 13 13 11 10 11 11 13 13 11 9 9 11 10 9 10 9 9 9 8 7 7 7 7 6 4 3 5 6 5 7 10 10 8 8 11 13 11 9 8 9 8 8 9 8 9 12 13
1 6 5 7 8 9 10 8 8 8 10 10 9 10 10 11 9 12 14 4 4 11 16 17 18 18 19 18 17 16 15 13 14 14 14 15 15 14 13 13 14 13 12 12 12 12 12 12 12 12 12 12 11 9 9 10 10 12 11 9 9 10 8 7 8 8 8 8 7 6 6 6 7 7 5 5 8 7 6 10 12 10 6 6 9 11 10 9 8 9 8 8 7 6 7 10 13
2 6 6 8 9 9 9 8 8 8 10 10 10 11 10 12 10 10 13 11 8 15 17 17 18 19 19 16 15 15 15 13 14 14 13 13 13 14 14 12 13 12 12 13 12 12 12 12 12 12 12 11 11 9 9 9 8 9 9 9 9 9 8 7 7 5 6 7 5 3 5 6 7 7 4 5 8 8 9 13 12 9 7 7 9 9 9 10 8 7 8 9 8 7 8 7 10
7 6 7 9 8 9 9 9 9 9 9 10 12 13 12 12 11 9 11 13 14 15 16 17 17 17 16 15 15 14 13 13 14 14 13 12 12 13 13 12 12 11 11 12 11 12 12 12 12 11 11 11 10 9 8 7 7 7 7 7 8 7 7 8 7 5 5 4 2 4 7 8 8 7 4 4 7 7 10 12 11 10 9 8 9 10 11 11 9 7 7 8 8 9 10 7 7
10 6 8 9 8 10 9 9 10 9 8 11 14 14 13 12 11 10 10 13 14 15 16 16 16 16 14 14 14 12 12 13 13 14 13 13 12 12 13 12 12 11 10 10 10 11 11 12 12 11 11 11 10 9 8 6 6 6 6 6 7 7 7 8 9 10 9 6 6 9 11 11 8 7 5 6 9 9 8 8 10 11 11 9 11 12 13 13 12 11 10 8 8 9 9 7 7
10 8 10 10 8 9 9 10 11 9 10 12 13 13 13 12 9 8 10 12 13 15 15 15 14 14 13 13 14 10 10 12 13 13 13 12 12 11 12 12 11 11 11 10 10 10 11 12 12 11 11 11 10 9 8 7 6 5 4 5 5 6 6 6 6 9 10 9 9 10 10 11 9 7 7 6 7 7 6 7 9 11 12 12 13 14 14 14 13 13 12 10 10 11 10 9 10
11 10 11 11 9 9 9 10 11 9 10 12 13 13 13 11 9 9 10 11 12 14 14 14 13 12 12 13 13 9 8 11 12 12 12 12 11 11 11 11 12 12 11 10 10 10 10 11 11 12 11 11 9 8 7 7 6 5 4 4 5 5 5 5 5 6 6 7 7 7 8 8 8 7 7 8 8 8 8 9 10 11 13 15 17 17 16 15 15 14 14 13 13 13 13 12 12
11 10 9 10 9 10 9 9 11 9 9 11 11 11 11 10 11 11 11 11 12 13 13 13 12 11 11 12 11 8 8 10 11 10 11 12 11 11 10 10 11 11 12 11 10 11 11 11 11 12 12 11 10 8 7 6 6 5 5 4 5 5 5 6 7 6 6 6 6 8 9 8 7 6 7 8 9 9 10 11 13 13 14 16 17 17 17 17 17 17 17 17 16 16 16 14 12
10 9 7 9 8 8 8 7 8 9 10 11 6 5 8 10 13 13 11 11 13 12 12 12 12 11 10 11 9 9 10 10 10 10 11 11 11 12 11 11 12 11 12 13 11 11 11 10 11 11 12 12 10 8 7 6 5 5 5 5 4 4 5 7 7 6 7 8 8 9 10 9 8 7 7 8 10 11 11 13 14 13 13 14 15 16 16 17 19 20 19 19 18 17 17 16 15
7 8 6 6 5 6 9 7 8 8 8 8 5 2 7 11 13 14 12 11 12 11 12 11 11 11 10 10 9 9 10 9 10 11 11 12 12 12 12 11 12 10 10 13 12 10 9 8 9 10 11 12 10 9 8 6 5 5 4 4 4 4 5 6 7 7 7 8 9 9 9 9 9 8 9 10 12 12 11 13 14 13 13 13 13 15 16 17 18 20 21 20 21 20 19 17 16
7 6 5 5 2 5 10 9 8 7 6 5 3 3 8 11 13 15 13 12 12 10 10 11 11 12 10 10 10 9 10 10 11 12 12 12 11 11 11 10 11 8 8 11 11 11 9 7 7 8 9 11 10 9 8 7 6 6 5 4 4 5 5 6 7 7 8 8 8 8 7 8 10 10 10 12 12 11 12 14 15 15 15 13 14 16 17 17 17 19 21 21 22 22 20 18 17
7 6 6 7 5 6 8 10 8 9 9 6 3 3 8 11 12 15 15 14 14 12 11 12 12 12 11 9 8 8 9 9 9 11 12 12 10 10 10 10 11 9 8 10 11 11 10 8 8 7 8 9 9 9 8 7 7 7 7 6 6 6 6 7 8 8 9 11 10 8 8 7 10 10 9 10 11 13 15 16 16 16 16 16 17 17 17 17 16 16 18 19 21 22 22 21 22
7 6 7 8 9 7 7 10 10 9 8 8 6 4 8 12 13 14 15 15 14 13 13 12 11 11 10 9 9 9 9 9 9 11 13 11 10 11 11 11 11 11 10 10 11 11 10 9 9 8 8 9 9 9 9 8 8 8 7 7 8 7 7 8 8 9 9 11 12 11 10 9 9 8 8 11 14 16 17 17 17 16 16 18 19 19 19 19 17 16 17 18 19 20 21 21 21
9 9 8 7 10 9 7 7 9 10 6 8 7 5 9 14 13 13 14 15 14 13 13 13 12 11 11 10 10 10 10 10 9 11 13 11 11 12 12 13 12 12 11 11 11 11 11 10 9 9 8 9 9 9 9 8 7 7 7 7 8 7 8 9 9 9 9 11 14 13 11 11 9 10 11 13 15 17 16 16 16 16 16 16 17 18 18 19 19 20 19 19 20 20 18 17 19
14 14 10 8 9 9 8 7 9 12 9 9 7 5 10 13 13 13 13 14 13 12 13 13 12 12 11 11 10 11 11 11 11 13 14 13 13 13 13 13 13 12 12 12 12 11 11 11 9 10 9 8 9 9 8 8 7 8 7 7 9 9 9 10 9 10 9 10 12 12 12 12 11 11 12 12 13 14 13 13 14 14 14 14 15 16 17 18 19 19 20 19 20 20 18 17 18
15 14 9 10 10 9 13 12 11 11 8 9 11 8 10 12 13 13 12 12 12 12 13 12 13 12 12 12 12 12 11 12 14 16 17 16 15 15 13 13 13 13 13 13 13 12 11 11 10 10 9 8 9 10 9 8 7 7 8 9 10 9 8 8 8 9 9 7 10 12 12 13 12 12 11 11 11 11 11 12 13 13 14 14 17 18 18 19 18 18 19 18 17 17 19 18 17
13 9 7 11 11 9 15 14 10 11 8 6 11 11 11 11 12 13 12 11 11 13 13 13 14 13 11 12 14 13 10 11 15 16 17 18 16 16 15 14 14 14 13 14 14 13 11 11 11 10 10 9 7 8 8 8 7 5 7 8 6 5 6 7 7 6 6 7 8 10 12 12 10 10 10 11 11 10 10 12 13 13 14 15 18 19 18 18 17 16 17 17 16 16 17 16 15
11 7 7 9 9 9 13 13 11 10 6 5 8 8 8 10 11 12 13 11 10 12 13 12 13 13 11 12 13 14 12 12 15 15 16 17 16 17 16 15 15 14 14 14 14 14 13 12 12 11 10 8 7 7 6 6 6 4 3 3 2 3 4 5 5 5 6 7 7 8 10 8 6 6 8 9 10 10 11 12 13 13 14 14 15 17 17 16 14 15 16 17 16 15 15 14 14
9 9 7 7 9 10 9 11 12 11 7 5 7 6 7 10 10 10 12 11 10 12 13 12 12 12 12 13 13 14 14 13 15 16 16 17 17 17 17 15 16 15 14 14 13 14 14 13 12 10 9 8 7 7 6 4 4 3 1 0 1 2 3 4 4 5 5 5 5 6 7 5 3 5 7 8 9 10 10 11 13 14 14 14 15 16 17 15 13 15 16 15 16 15 13 13 14
7 12 9 7 10 11 11 13 12 12 9 7 7 6 5 7 7 8 10 11 11 11 12 12 11 12 12 13 14 14 14 14 14 15 15 16 17 17 18 16 16 15 14 13 14 14 14 13 12 10 9 8 7 7 7 6 5 4 2 1 1 1 2 3 3 5 6 6 6 8 10 9 7 7 8 9 9 10 11 12 13 14 14 14 14 15 15 13 12 11 11 12 14 14 12 12 14
8 13 15 13 9 11 15 18 13 9 8 9 9 6 4 5 3 5 5 8 11 11 12 12 11 11 12 12 13 14 14 14 13 14 14 15 17 19 19 18 16 15 15 14 15 14 13 13 12 11 10 10 9 8 8 7 6 4 3 1 1 2 2 3 3 4 7 7 7 9 10 9 8 8 8 9 10 11 11 12 13 13 14 14 14 14 13 12 10 8 8 9 10 11 11 12 14
7 11 17 18 11 15 18 20 15 7 6 10 12 9 5 6 5 6 2 5 10 10 13 13 11 11 11 11 12 13 14 14 13 14 15 14 17 18 19 18 16 15 16 15 15 14 14 14 13 13 12 11 10 9 8 7 6 4 3 1 1 2 3 2 3 4 5 5 5 7 8 7 8 8 9 9 11 11 11 11 12 13 13 13 13 12 12 11 10 9 9 8 8 9 10 11 13
9 11 17 14 13 15 14 13 14 7 6 10 14 12 7 5 10 12 7 5 10 11 12 12 11 12 13 12 12 13 14 14 14 13 14 13 15 17 18 18 16 15 16 16 15 15 15 16 15 14 13 12 10 9 8 7 6 4 3 2 1 1 2 3 4 5 4 3 5 6 7 7 7 8 8 10 10 10 11 12 12 13 13 13 12 11 11 11 11 10 11 9 9 10 9 10 12
11 7 10 11 12 16 13 6 10 9 7 8 11 13 8 4 10 13 14 12 13 15 16 14 12 13 14 14 14 14 14 14 14 14 13 13 16 18 19 19 17 16 18 17 16 16 16 16 15 14 14 12 11 10 9 8 6 5 3 3 1 0 1 3 4 4 4 5 5 6 6 7 7 8 9 9 10 10 11 12 12 12 12 12 12 12 10 10 11 11 11 10 10 11 10 11 13
11 7 8 11 14 11 10 6 6 7 7 7 8 11 8 5 8 12 14 15 16 16 15 14 13 13 13 14 14 14 12 12 14 15 13 14 18 20 20 20 18 18 19 18 17 17 16 16 16 15 14 13 12 11 9 8 7 5 4 3 2 1 1 2 3 4 5 5 5 6 6 6 7 8 9 9 9 9 9 10 10 11 12 11 12 12 10 10 10 11 11 11 11 12 11 10 12
13 9 11 12 9 5 6 6 6 8 6 8 11 12 10 6 6 11 12 14 14 13 12 13 15 16 15 14 15 15 12 10 12 13 13 15 19 20 21 20 20 20 20 19 18 18 17 17 16 15 14 13 13 11 10 9 7 6 4 3 2 1 2 3 4 4 4 4 5 5 6 6 7 8 8 9 9 9 9 9 9 10 11 11 11 10 10 10 10 10 11 11 11 11 11 11 12
12 7 9 8 3 4 5 6 6 7 7 9 13 12 12 8 6 9 12 17 19 15 14 15 16 16 15 15 15 14 13 12 12 12 12 14 16 19 21 21 21 22 22 20 19 18 18 17 17 16 14 13 13 11 10 9 8 6 5 3 2 2 2 3 3 4 4 4 5 5 6 7 7 8 8 9 9 9 9 9 9 10 10 11 10 9 10 10 9 10 11 11 12 12 12 12 13
10 7 8 7 4 4 6 7 7 7 7 9 12 12 11 9 8 9 11 15 20 16 13 15 18 18 15 16 17 13 13 14 14 12 11 12 12 15 20 21 21 23 23 22 21 20 19 18 18 17 16 14 13 12 11 10 9 7 6 4 3 3 2 2 3 3 3 3 4 5 6 7 8 9 9 9 9 9 10 10 10 11 11 11 11 10 10 10 10 10 10 12 12 12 13 12 13
8 8 6 6 6 6 7 7 6 7 9 11 13 12 8 7 7 9 11 13 16 14 12 13 17 20 16 16 18 15 14 15 13 12 12 11 12 15 19 21 21 22 23 23 23 21 20 19 19 18 17 15 14 13 11 11 10 8 7 6 5 4 3 3 2 2 3 3 4 5 6 7 9 9 10 10 10 10 10 10 10 11 10 11 11 11 10 10 11 11 11 13 12 12 12 12 12
7 8 8 8 8 6 6 6 6 7 8 11 13 10 7 5 2 4 5 6 14 13 11 9 8 13 13 13 17 17 16 14 13 12 13 12 14 17 20 22 22 22 23 23 23 23 22 20 20 19 18 17 15 14 13 12 11 9 8 7 6 5 4 3 2 3 4 4 4 5 6 8 9 9 9 10 10 10 10 10 10 10 10 10 10 11 10 10 11 11 12 13 12 12 12 12 13
9 9 10 10 8 7 6 7 9 7 6 7 7 6 5 2 0 1 1 4 9 8 7 8 6 9 11 9 11 12 13 13 13 13 13 13 15 18 20 22 22 22 24 24 24 25 23 22 21 20 19 18 17 15 14 13 11 10 9 8 6 5 4 4 4 4 5 4 5 5 7 8 9 9 9 10 10 10 10 10 10 10 10 9 9 10 10 10 11 11 12 12 11 11 12 12 13
8 9 11 11 9 9 7 8 10 8 7 6 5 6 6 4 3 7 8 6 6 4 2 6 7 8 9 8 8 8 11 12 13 13 11 13 16 17 20 23 22 22 23 23 25 25 24 23 23 21 20 19 18 16 15 14 12 10 10 9 7 6 5 5 5 5 5 5 5 6 7 8 8 8 9 9 9 10 10 11 11 11 10 10 9 9 9 10 10 11 11 10 10 10 11 11 12
8 9 11 11 10 8 5 6 7 7 8 6 7 10 8 6 4 7 12 10 8 7 3 5 7 8 6 8 10 12 13 10 12 13 11 13 16 17 20 22 22 23 23 23 25 26 25 24 24 23 21 20 19 17 16 14 12 11 10 9 8 7 6 6 5 5 5 5 5 6 7 7 8 8 9 9 9 10 11 11 11 12 11 11 10 10 9 9 10 10 10 10 9 9 10 11 11
13 9 10 9 7 8 7 6 5 6 7 6 7 10 8 6 4 8 13 11 10 11 6 6 8 10 7 7 8 13 13 8 9 12 11 12 16 19 20 22 22 23 23 24 24 24 23 23 23 23 22 20 19 18 16 14 12 11 9 9 8 7 7 7 6 6 5 6 6 6 7 7 8 8 9 9 10 11 11 11 12 12 12 11 11 10 10 10 10 10 10 10 9 9 9 10 11
14 11 8 6 6 8 7 5 3 6 6 5 7 7 4 3 5 12 13 10 9 11 10 8 6 8 9 8 6 8 12 12 12 14 13 12 17 22 23 23 22 22 23 24 24 23 23 23 23 23 22 21 19 18 17 15 13 11 9 8 8 8 8 7 7 6 6 7 6 7 8 8 8 9 9 9 10 11 11 12 13 12 12 12 11 11 10 10 11 10 10 10 10 10 10 11 11
11 10 9 7 6 6 5 5 6 7 7 5 6 4 2 3 4 12 12 8 6 6 7 6 3 3 6 9 6 5 9 13 13 13 15 14 16 22 24 22 21 21 22 23 23 23 23 22 23 23 22 21 20 18 16 14 13 12 10 9 9 8 8 8 8 7 7 7 7 9 11 10 11 10 9 9 10 11 12 13 13 13 14 13 13 12 11 11 11 10 10 11 11 11 11 12 12
12 9 9 9 7 6 6 5 7 7 6 5 6 3 5 5 5 9 9 7 8 6 3 6 6 4 3 6 7 5 6 11 12 13 15 15 15 20 22 22 21 21 23 24 23 23 23 23 22 21 21 20 19 19 17 15 14 12 11 11 9 9 9 9 8 7 8 8 10 12 13 13 14 12 10 9 10 11 12 13 14 14 14 15 15 14 13 12 11 11 11 12 12 11 12 12 12
Wind_Direction
303 291 273 244 232 252 253 226 273 205 149 71 75 74 76 76 82 82 78 78 73 70 67 78 78 74 77 76 75 64 52 45 53 83 94 136 148 138 135 135 129 123 121 121 123 124 126 125 125 125 123 121 117 115 116 117 116 115 114 115 114 114 114 116 117 116 115 114 112 112 111 111 112 113 115 116 117 116 115 114 111 109 107 105 102 98 92 90 88 90 93 93 94 93 91 90 89
294 277 263 245 235 249 270 205 234 95 89 72 71 64 72 73 73 71 72 73 67 79 81 84 85 85 86 85 82 71 63 62 74 81 104 132 137 133 134 133 128 123 120 120 122 124 125 126 126 126 125 121 117 116 119 120 119 118 116 117 119 118 119 119 120 119 117 116 114 113 111 111 111 113 114 114 114 114 114 112 111 109 107 106 102 98 95 92 90 89 89 88 87 85 82 81 80
280 269 266 260 254 240 258 244 137 78 80 74 77 70 77 75 77 78 81 85 81 85 84 84 82 84 85 81 75 76 79 78 90 96 116 133 136 137 137 132 128 121 119 121 123 126 126 128 128 128 125 121 118 118 120 121 121 122 120 121 123 123 122 121 120 119 117 115 113 111 111 110 110 110 111 111 111 112 112 112 112 111 108 105 102 99 98 95 92 88 84 82 82 79 78 76 74
278 271 272 292 282 238 240 231 94 78 83 80 79 75 80 81 84 84 84 86 80 76 79 86 81 76 79 85 87 85 90 89 101 109 122 133 134 139 138 133 128 123 122 122 125 129 129 132 131 129 127 123 121 120 122 122 123 124 125 125 127 127 125 122 120 119 117 114 113 112 111 110 110 110 110 111 112 112 112 114 115 114 112 108 104 100 98 96 91 86 83 80 79 79 78 75 71
268 262 255 234 298 271 257 143 89 81 85 86 88 83 86 88 89 87 88 92 92 89 84 83 80 77 73 81 92 93 98 94 102 110 119 127 131 136 136 132 129 127 126 123 129 132 131 135 132 130 128 127 125 122 124 125 126 127 128 130 129 129 126 123 121 119 117 115 115 114 115 113 111 110 109 112 113 113 115 118 118 117 114 110 106 102 99 95 90 85 83 82 82 82 81 78 73
268 263 237 207 249 290 269 96 85 83 83 86 90 84 83 83 85 85 85 84 85 87 84 84 87 87 75 71 77 89 106 107 106 113 121 128 131 133 132 131 128 127 126 124 131 133 133 136 133 130 129 129 127 125 128 130 131 131 131 132 130 129 127 125 123 121 119 117 116 117 117 118 116 112 111 113 114 114 117 120 120 117 113 109 104 101 98 94 91 87 86 84 82 81 81 80 73
280 293 244 215 254 264 111 89 84 85 87 89 92 89 91 94 95 92 89 88 88 91 94 98 100 94 82 77 79 87 100 106 108 116 122 126 129 129 130 129 127 125 124 124 130 134 134 136 133 130 129 129 129 130 133 134 135 135 135 134 131 130 129 127 124 121 120 119 118 119 119 120 119 117 116 116 115 114 116 117 115 114 111 108 104 99 96 94 91 88 87 83 82 81 80 79 70
275 316 302 320 290 216 96 86 86 84 87 87 88 91 95 97 95 93 92 93 95 96 99 101 98 89 83 83 85 90 95 100 107 115 120 124 127 128 127 126 126 125 125 126 131 133 133 135 133 129 129 129 132 136 136 138 140 139 138 135 134 132 131 127 124 122 120 119 120 120 121 121 121 120 121 121 120 118 118 116 114 115 113 109 103 98 94 92 94 93 91 87 85 79 72 72 65
291 311 310 317 281 114 91 87 88 88 93 94 90 87 84 87 90 94 94 88 90 94 95 97 95 94 94 90 91 95 98 104 110 115 118 121 128 129 125 124 124 125 124 126 132 133 134 136 134 131 130 133 137 141 142 144 144 141 140 137 135 133 130 127 125 125 123 122 123 124 125 125 125 125 127 129 130 128 126 125 125 123 118 111 101 95 89 87 101 106 101 98 95 96 89 66 54
313 278 261 340 322 54 87 94 96 98 98 98 95 93 93 96 95 92 93 88 86 86 89 95 98 102 104 98 97 104 108 112 113 114 116 118 123 124 123 124 124 125 124 125 132 134 134 136 134 133 133 137 142 145 148 148 146 143 141 138 135 134 131 129 129 128 128 128 129 131 133 133 133 134 135 137 137 136 136 136 137 132 123 110 98 84 75 79 100 100 89 98 353 188 177 138 214
290 245 248 7 13 37 72 93 95 100 100 98 93 91 93 96 92 87 89 90 92 96 101 104 102 101 102 100 102 113 118 118 114 113 115 117 118 118 121 125 124 124 125 126 131 134 134 136 136 137 136 140 145 147 150 147 146 143 140 139 137 136 134 133 134 133 134 135 139 140 141 142 141 143 144 145 143 142 142 145 148 143 138 121 106 44 55 322 327 354 322 308 300 287 276 266 243
271 271 218 143 83 50 59 94 90 99 104 100 96 94 95 101 100 97 98 101 107 107 102 103 104 105 104 104 108 118 121 118 114 114 116 117 114 114 119 122 123 123 126 128 130 134 137 140 142 143 142 145 148 148 149 148 145 143 142 141 140 139 138 138 139 139 141 143 147 149 149 148 147 149 151 151 149 148 150 157 166 169 187 204 239 266 239 274 306 315 301 300 297 288 283 282 272
269 279 215 112 100 77 46 65 87 96 97 96 99 98 97 99 98 103 108 106 101 97 99 109 117 113 106 108 118 121 120 118 116 118 119 115 113 113 114 117 121 122 126 129 130 135 139 143 147 149 149 148 148 147 149 150 148 147 146 145 145 144 143 143 144 145 147 150 153 154 153 151 153 156 160 161 158 158 160 174 183 190 220 237 242 241 239 271 297 303 298 296 292 286 280 280 278
265 280 245 123 141 120 74 358 120 99 97 107 104 97 97 93 99 110 111 102 95 104 111 112 115 107 108 120 129 128 124 122 118 119 118 113 115 116 114 117 120 123 126 129 132 137 140 143 149 150 150 148 149 150 151 154 153 152 151 149 150 148 147 148 149 150 152 156 157 159 157 155 160 165 174 174 174 173 180 200 199 202 222 234 242 249 259 286 304 304 302 300 293 289 284 280 277
270 292 281 135 144 125 130 201 165 112 105 109 103 101 104 94 103 102 97 100 103 118 113 113 128 119 128 139 130 131 130 127 124 124 119 114 118 118 118 120 121 126 128 131 134 138 142 144 149 150 149 151 152 153 156 159 159 157 156 154 154 152 153 153 154 156 158 162 164 167 166 168 179 184 187 191 197 203 220 234 238 234 229 237 255 268 278 294 304 303 301 299 294 291 288 283 280
253 289 288 164 133 133 156 178 141 119 108 109 111 110 108 97 96 90 95 107 114 129 116 119 146 130 136 136 124 131 133 130 128 126 122 117 119 120 122 123 125 129 131 136 139 141 144 146 151 152 154 158 156 158 161 163 164 162 160 159 159 159 160 161 162 165 168 174 177 182 183 188 200 214 225 239 246 254 260 243 243 253 248 252 269 282 286 293 296 298 299 297 294 291 289 288 285
239 254 260 232 105 121 148 147 130 118 116 123 120 111 108 102 98 95 109 115 115 137 122 112 123 121 128 125 124 131 131 130 128 124 123 123 125 126 128 128 130 133 136 141 141 143 146 149 155 157 160 161 159 163 164 166 169 166 165 166 167 169 171 172 174 176 180 187 195 200 202 207 214 229 246 253 258 272 282 265 248 260 267 270 282 288 290 293 293 295 297 296 294 291 289 287 285
262 265 272 37 62 64 103 127 142 133 127 131 122 117 114 114 111 102 118 119 112 116 106 106 108 108 114 120 127 130 131 133 133 130 129 132 132 132 134 135 138 139 142 142 143 148 148 152 160 161 163 163 161 165 167 171 172 169 172 173 174 179 181 181 181 182 188 199 209 216 217 217 229 235 245 258 260 263 277 283 273 276 282 281 286 291 292 292 293 295 294 295 297 297 294 288 289
251 281 61 49 54 55 84 125 136 128 125 126 122 120 116 122 114 89 91 112 112 108 99 104 107 110 117 124 131 133 137 138 138 140 139 138 136 138 141 141 144 145 146 146 148 152 151 156 161 161 164 164 163 167 169 172 172 171 175 179 182 186 188 188 186 187 196 207 210 219 226 219 231 244 252 265 266 257 270 288 291 286 282 283 283 285 290 292 295 296 291 290 294 300 300 295 293
261 264 111 77 74 73 75 98 109 117 125 122 122 123 124 132 122 113 130 122 117 120 116 119 121 125 130 131 135 140 143 141 143 146 143 140 140 145 146 145 148 149 150 149 151 154 156 158 159 161 162 162 161 165 168 170 171 172 178 185 186 187 194 196 194 196 203 213 214 221 234 228 232 247 259 266 271 274 280 288 291 286 284 293 290 280 283 288 292 294 291 287 288 294 296 294 282
312 52 73 83 85 103 99 102 109 115 111 109 122 124 120 118 117 126 138 133 130 134 132 134 134 134 136 137 142 146 146 144 148 149 143 144 146 147 146 146 147 148 149 150 153 156 159 158 158 161 161 162 160 162 171 171 168 173 186 189 182 185 198 200 202 210 209 212 220 225 236 238 238 251 269 278 284 282 282 285 282 275 281 295 288 273 274 279 282 287 291 287 286 285 285 290 279
88 78 84 96 94 106 104 102 102 107 108 115 121 105 95 88 88 93 89 81 150 137 135 133 136 137 139 143 145 148 148 149 153 151 147 150 154 149 147 147 142 146 151 152 156 158 162 162 161 161 162 167 165 168 177 172 168 175 186 185 176 182 192 200 206 214 216 216 221 222 225 236 241 251 269 270 265 262 267 280 275 270 283 298 281 269 269 273 271 275 282 279 282 282 285 294 285
148 96 84 96 99 99 98 104 107 114 115 114 106 96 99 98 96 97 104 189 207 125 129 132 135 138 140 144 148 150 150 154 156 153 152 155 155 149 151 151 145 153 158 153 157 161 165 166 165 164 165 171 173 175 176 174 175 177 179 174 175 182 184 203 212 209 212 208 205 209 219 233 236 236 252 251 258 275 284 275 269 273 292 295 280 273 271 274 273 278 289 292 293 281 275 291 290
108 108 115 104 103 109 110 110 103 96 95 100 105 103 103 100 102 106 122 161 148 115 124 132 134 138 140 146 150 150 152 160 160 155 157 157 153 149 155 155 148 157 156 149 158 165 168 169 168 167 168 174 179 182 180 181 182 178 173 166 177 188 179 197 231 249 229 206 191 217 234 242 242 235 246 265 276 296 286 273 273 281 291 283 278 277 274 277 281 284 295 303 306 289 275 289 294
99 109 118 110 114 118 109 99 98 104 108 110 105 97 92 94 99 96 103 120 117 117 128 132 135 139 141 147 147 147 156 162 159 157 158 158 160 155 154 154 149 156 155 150 160 166 169 171 171 172 174 178 183 187 187 188 183 180 182 173 180 190 185 196 218 246 245 247 269 243 230 237 256 259 262 270 266 262 256 267 282 287 291 290 286 286 280 279 280 276 281 294 299 292 291 300 291
106 125 119 121 128 120 114 111 106 106 108 103 99 99 102 106 107 102 102 111 118 126 131 133 139 142 144 148 142 147 163 162 159 160 157 158 168 164 157 155 153 157 158 157 162 166 169 174 177 178 180 183 189 193 192 195 191 189 193 188 190 193 202 206 195 191 196 219 232 219 215 215 231 240 225 211 211 221 235 257 276 284 291 293 291 289 283 280 278 271 267 270 271 274 281 285 274
111 151 136 130 130 123 119 112 106 104 110 111 114 116 118 120 114 110 114 120 129 134 134 140 145 143 148 146 138 157 171 159 162 161 156 163 171 171 165 160 158 160 160 165 168 168 173 177 180 182 184 187 190 197 197 199 200 200 199 201 215 209 213 221 208 201 198 206 213 206 203 203 210 215 217 222 219 233 253 258 267 279 284 282 282 282 280 280 280 276 270 264 261 261 263 261 259
137 158 132 133 146 133 119 116 122 125 123 124 129 125 120 117 110 117 128 134 141 141 141 147 148 145 148 140 139 170 173 158 167 163 160 168 169 173 172 160 161 163 163 173 173 170 181 184 183 181 184 187 189 199 198 202 205 204 211 215 233 230 224 233 236 238 228 217 213 214 223 226 238 242 238 252 259 264 266 261 262 268 273 274 275 275 275 275 276 278 274 267 267 266 264 260 256
144 150 137 152 161 141 137 142 134 128 124 128 134 125 115 112 115 126 136 142 145 145 149 151 149 146 144 138 148 175 167 162 171 167 167 167 166 174 176 168 167 168 167 177 178 176 185 187 185 182 183 188 190 198 200 204 211 208 216 225 238 241 241 246 244 247 247 234 224 233 243 240 248 256 251 255 261 266 266 266 267 269 273 275 277 276 274 271 270 274 273 270 271 271 270 268 264
138 158 159 162 166 161 153 142 137 137 130 128 135 128 115 119 129 136 144 149 148 149 153 154 150 148 146 143 160 174 162 170 174 172 170 165 170 175 179 176 171 173 169 173 181 183 187 185 187 186 184 189 189 198 203 203 213 216 224 234 243 251 258 263 263 258 248 240 236 239 238 228 227 233 237 249 258 265 271 274 276 272 267 270 274 276 277 275 271 270 270 270 271 272 272 270 270
160 169 160 170 181 174 150 148 168 158 144 143 161 179 122 128 141 141 142 147 152 155 153 157 153 149 151 151 169 171 160 177 176 172 168 165 177 176 177 175 165 172 166 166 177 185 189 182 183 186 183 188 190 195 202 205 214 221 230 242 247 256 267 273 278 275 265 254 244 245 240 223 219 223 233 253 263 268 272 273 273 268 261 260 262 271 282 283 278 273 270 269 271 273 273 271 270
183 161 171 185 177 183 159 167 181 149 141 157 187 188 128 136 149 146 147 149 152 156 155 164 157 153 158 158 172 167 160 179 176 175 173 169 176 164 163 161 150 157 160 163 173 180 188 178 173 179 177 182 187 191 200 206 213 224 230 236 245 250 257 265 272 276 276 271 263 267 263 229 224 236 248 259 263 268 270 270 272 272 272 267 259 265 276 281 282 280 277 274 272 273 272 272 273
179 162 197 170 158 215 174 164 179 159 152 159 201 195 135 141 153 153 157 153 152 157 161 170 161 156 161 159 172 167 161 177 178 179 175 166 163 151 152 154 149 155 161 167 170 178 184 177 175 177 175 181 186 189 196 205 211 223 227 230 242 245 250 257 266 272 273 273 272 277 279 247 231 241 251 257 263 273 277 278 278 275 274 273 268 265 267 273 277 279 282 279 273 272 272 274 276
171 175 215 172 167 217 189 164 180 180 166 157 178 187 136 143 157 162 163 157 158 163 162 168 165 159 162 163 172 171 165 173 178 175 166 156 158 158 158 159 163 165 165 169 170 177 179 175 181 182 180 183 184 188 193 202 210 219 226 233 240 245 251 256 265 270 273 276 275 274 276 264 249 257 269 273 278 284 288 286 283 280 274 274 275 271 268 268 268 272 278 276 274 273 273 276 278
176 186 215 186 176 205 203 180 177 181 180 154 169 192 145 146 159 167 172 168 164 163 161 167 168 164 167 173 172 168 168 171 173 166 155 154 165 169 167 163 168 171 171 172 169 173 175 173 178 179 181 183 182 188 192 198 209 220 230 240 243 245 251 258 267 271 275 285 285 280 279 280 284 289 289 288 287 288 290 287 283 282 277 274 276 276 274 270 266 267 267 269 275 274 271 274 278
187 199 203 184 190 191 185 214 189 175 189 165 166 206 159 153 167 169 180 181 165 160 165 166 166 168 173 177 170 166 172 167 166 167 157 162 174 173 170 166 170 177 175 171 168 171 172 171 173 173 178 181 177 178 186 196 204 214 222 234 244 243 246 258 272 279 279 286 290 287 285 294 300 298 296 296 291 289 290 289 283 280 278 275 275 275 275 274 271 269 265 267 271 271 272 273 274
192 204 190 179 203 178 169 212 198 173 208 172 156 187 171 161 171 169 179 186 169 162 168 166 164 170 175 175 167 169 178 164 165 174 166 169 178 173 173 171 173 182 175 169 171 173 171 171 171 172 175 178 178 178 186 196 202 217 223 230 243 248 255 268 275 281 283 280 289 296 300 305 303 301 307 310 304 297 293 294 290 285 283 282 283 281 276 274 275 273 271 270 268 268 274 276 275
206 207 184 184 208 185 176 200 187 176 215 183 165 182 172 167 175 173 176 184 178 169 172 172 169 170 173 174 167 169 179 164 164 176 169 170 178 175 176 175 177 183 176 172 176 172 172 175 172 174 177 176 183 186 192 199 203 223 230 234 249 258 270 279 274 284 295 287 291 302 307 305 297 303 314 317 315 310 305 305 304 299 295 293 291 288 283 277 273 274 276 276 273 271 274 278 276
241 228 200 195 206 188 179 181 171 182 205 193 193 184 165 175 180 177 177 183 185 175 175 176 171 170 174 174 166 169 180 170 165 171 171 175 179 177 178 178 181 184 178 180 181 171 173 178 173 175 177 175 184 186 191 200 200 206 221 242 267 273 283 290 294 303 300 294 293 298 303 300 295 311 317 317 317 314 312 311 310 308 304 301 297 295 296 288 272 276 281 277 277 277 276 278 272
267 258 211 195 213 199 169 157 167 192 204 197 201 194 187 183 181 185 183 185 187 179 179 179 175 172 175 178 172 174 177 169 167 170 174 180 180 177 177 180 183 182 182 184 178 171 174 176 175 179 178 176 180 174 172 176 170 173 169 273 271 277 298 305 318 311 305 314 310 317 349 14 7 339 329 326 323 317 316 313 310 308 305 304 301 300 304 299 288 290 286 275 276 279 276 277 271
235 256 240 211 217 198 161 156 176 200 203 202 198 203 208 168 169 200 187 188 196 185 181 182 180 176 179 183 176 176 175 168 172 174 174 178 175 175 176 181 184 178 180 180 171 171 177 176 174 175 172 168 165 154 149 147 144 149 143 96 285 283 324 328 335 327 334 343 329 338 5 14 1 349 339 333 327 321 319 316 314 312 309 307 303 300 302 303 301 298 288 276 276 276 275 281 275
209 235 247 246 218 172 162 162 176 203 196 199 203 210 210 140 157 237 207 206 207 190 187 187 182 178 181 187 180 178 177 171 174 177 177 176 172 173 174 178 184 176 173 174 170 173 174 171 167 162 161 156 151 146 141 141 138 135 128 91 2 11 349 340 357 345 337 336 329 336 347 347 345 344 338 332 326 321 319 317 316 314 311 308 305 301 301 302 299 296 290 278 277 280 281 286 281
220 204 234 257 231 187 182 168 170 212 202 191 198 209 209 147 174 230 252 269 239 205 196 191 182 181 185 193 184 180 180 174 177 182 180 178 173 172 170 174 183 176 169 170 170 170 166 162 160 156 154 148 145 145 139 137 133 127 130 120 58 10 336 341 356 330 315 317 322 326 329 334 333 329 329 326 321 318 316 317 317 316 315 314 309 306 307 306 301 303 301 285 283 290 286 284 284
244 194 201 239 250 233 223 181 173 203 218 204 197 200 220 185 188 199 184 240 255 230 212 196 184 185 191 200 190 182 185 177 179 185 181 177 174 171 168 170 179 173 163 165 164 164 162 159 157 154 151 149 148 146 140 139 141 141 143 139 114 357 320 334 332 317 314 322 317 311 314 320 320 318 317 312 311 312 313 316 319 318 320 322 319 317 316 312 308 311 313 305 297 296 287 278 280
246 230 201 210 241 265 271 218 183 190 211 232 203 193 224 219 174 184 187 202 226 226 214 198 192 195 193 201 198 188 187 179 179 187 186 177 172 170 164 164 175 171 161 161 160 160 160 158 156 153 152 153 154 152 150 150 151 153 155 157 161 219 313 325 319 314 318 315 305 302 306 314 317 315 309 306 309 310 310 313 317 320 322 323 323 323 317 311 311 309 312 318 309 302 295 279 275
230 244 258 223 207 238 270 256 241 231 218 241 229 198 217 237 165 173 192 203 214 217 208 195 198 208 202 202 205 194 185 179 180 187 188 178 173 171 164 165 174 167 158 160 159 159 160 159 157 155 157 159 160 161 161 159 160 164 170 171 185 253 294 309 309 304 303 303 303 305 312 318 317 312 310 313 314 313 313 315 318 322 322 319 320 323 320 316 316 311 311 314 305 301 301 284 275
230 218 242 237 186 181 265 265 274 280 242 239 249 212 198 229 193 181 195 202 207 207 204 201 200 206 204 201 207 202 187 179 180 185 186 176 171 168 163 168 171 158 156 160 159 161 162 161 161 161 163 165 166 168 166 168 173 173 178 183 200 253 295 305 304 302 304 310 310 312 319 320 315 312 312 312 312 317 322 325 323 321 320 319 318 321 322 321 319 317 319 316 307 305 306 298 289
228 221 229 243 168 143 245 245 237 263 254 243 254 229 207 235 234 197 194 193 195 197 201 204 198 201 204 197 204 205 188 182 181 181 182 172 167 166 165 169 163 153 158 163 161 163 163 164 168 167 170 171 171 174 172 175 181 182 188 193 203 228 274 290 298 306 307 310 312 317 319 315 315 316 314 313 316 324 328 328 323 320 320 319 316 315 316 318 318 318 320 315 309 306 306 306 304
199 218 227 232 219 189 217 230 217 235 251 244 254 251 234 248 245 217 209 196 189 193 203 201 194 200 206 196 197 201 189 185 185 181 180 171 167 168 166 165 159 155 163 166 163 165 165 168 174 173 176 178 176 179 180 182 186 191 194 194 202 213 234 265 279 291 297 307 314 315 313 316 321 320 318 321 324 324 325 324 321 319 320 319 317 313 311 316 319 320 321 316 312 312 313 312 308
182 211 225 215 217 208 204 226 233 235 246 239 243 257 258 258 233 206 225 212 179 185 210 206 194 195 202 195 188 196 194 185 182 183 180 171 169 170 164 161 159 160 167 168 165 166 167 171 178 179 181 182 182 183 185 189 191 194 195 196 204 205 213 241 249 271 292 301 302 303 309 316 318 316 317 319 317 316 316 316 315 314 314 316 316 313 312 317 319 323 324 320 319 319 318 316 313
196 209 227 223 220 222 208 215 232 231 240 232 225 232 239 259 236 164 232 195 157 177 200 187 177 178 187 195 185 190 198 183 174 181 179 171 170 168 163 160 162 166 170 170 168 167 168 174 180 183 184 184 186 187 189 193 193 195 196 196 202 206 207 221 232 255 269 275 284 295 305 307 307 309 309 306 304 305 307 309 309 310 311 311 313 314 315 315 316 319 318 314 317 318 315 317 320
201 203 233 234 207 207 224 240 248 249 260 244 226 232 211 191 87 159 336 88 140 178 179 143 131 149 167 187 177 185 203 185 172 182 179 169 170 168 163 162 166 170 174 173 170 168 170 175 181 185 187 187 188 189 191 194 195 195 196 197 203 209 210 216 234 248 252 261 281 293 298 300 299 303 305 302 301 302 303 306 306 307 307 306 306 308 309 309 309 309 306 308 313 313 314 323 329
192 191 229 245 226 211 219 241 248 258 270 254 230 251 228 190 226 206 189 168 150 161 187 163 147 141 155 157 150 190 216 188 169 179 178 167 171 168 163 166 171 174 177 177 172 172 173 176 180 186 188 187 188 191 193 193 194 194 195 200 205 209 216 224 235 249 257 265 279 286 289 293 297 303 305 303 301 301 302 304 305 306 305 302 300 300 302 305 307 307 306 308 310 308 311 318 326
201 189 205 232 257 256 243 241 233 228 246 243 217 232 228 211 226 181 168 170 153 147 217 211 150 137 166 166 160 190 209 186 165 173 172 168 174 169 161 169 176 176 179 180 175 174 177 178 180 184 186 188 189 191 193 193 193 194 196 202 209 214 221 230 237 245 255 263 269 276 283 289 299 306 306 302 300 301 303 303 302 303 301 299 296 294 297 299 301 303 303 303 303 304 306 307 311
224 221 202 204 240 249 238 243 252 242 246 251 236 238 240 227 199 140 148 160 158 155 178 207 166 153 181 197 185 188 184 163 166 181 177 171 176 174 167 172 179 178 179 180 177 177 179 181 181 182 185 188 188 190 192 192 192 193 197 204 211 216 221 226 234 238 247 257 263 273 282 288 296 300 300 301 301 300 302 302 302 301 299 298 296 293 293 295 296 296 294 295 297 299 299 297 303
232 244 236 219 230 239 231 215 238 268 260 249 245 243 254 249 153 138 149 164 165 157 161 183 182 164 172 183 205 196 169 159 178 189 185 175 175 175 172 174 179 179 179 179 179 181 184 182 181 181 184 185 188 190 190 191 192 192 195 202 208 215 223 226 229 235 241 250 260 267 271 274 277 279 283 292 297 297 298 300 301 300 299 299 297 294 291 290 293 293 292 293 297 301 301 298 303
219 239 246 234 220 222 219 191 194 238 252 249 251 240 67 34 111 128 136 144 134 126 138 147 159 205 177 161 183 206 172 173 181 179 179 180 178 177 174 173 176 179 182 182 181 186 189 184 181 182 182 183 186 189 189 189 191 193 195 201 208 214 222 226 226 232 239 245 254 258 260 260 258 261 268 279 288 292 295 298 298 299 299 300 299 296 294 292 293 294 294 295 295 298 301 301 305
206 210 232 239 228 211 216 205 188 217 250 255 256 245 89 68 79 107 119 133 126 114 121 141 160 203 175 144 174 191 177 185 175 161 176 183 178 180 177 172 175 181 185 185 184 191 194 187 184 184 182 183 185 186 189 189 190 195 198 201 209 216 221 225 226 232 239 244 250 257 262 258 252 255 263 271 279 284 288 292 293 295 297 299 299 299 299 297 293 292 295 296 294 293 296 299 303
Height
736 736 734 737 735 736 735 739 762 753 747 764 760 759 756 742 743 748 752 749 751 747 737 740 741 744 753 765 770 769 771 775 776 786 809 811 802 803 802 805 806 805 807 807 809 810 810 811 812 812 812 812 813 814 815 817 817 818 819 821 821 822 823 825 826 828 829 830 831 831 832 833 833 834 834 835 835 836 837 839 840 840 841 842 842 842 842 842 843 843 843 843 843 843 843 842 843
734 734 731 734 733 742 742 741 765 755 752 773 763 759 755 743 750 756 756 754 753 744 736 738 741 745 751 757 761 767 776 773 771 781 795 800 803 805 803 805 805 806 807 807 809 810 811 811 812 812 813 814 814 815 817 818 819 820 821 822 823 824 825 827 828 829 830 831 832 832 833 833 834 834 835 835 835 836 837 838 839 840 841 841 842 842 842 843 843 844 844 844 844 844 844 844 844
732 731 729 733 731 737 744 746 761 762 769 781 769 757 751 754 759 756 752 749 745 737 737 740 744 748 754 765 767 776 785 777 775 784 793 799 802 803 805 805 805 806 806 807 809 809 811 811 812 813 814 815 815 816 818 819 820 822 822 823 824 825 827 828 829 830 830 831 832 833 833 833 834 834 835 835 836 837 838 839 840 840 841 841 841 842 842 843 844 844 845 845 845 845 845 845 845
731 730 727 730 735 740 751 757 756 762 777 780 775 760 752 761 757 752 747 743 740 738 743 745 751 749 755 773 772 777 786 780 780 785 793 799 799 801 804 804 806 807 807 809 809 810 811 812 813 814 815 815 815 817 819 821 822 823 824 825 826 827 828 828 829 830 831 831 832 833 833 834 834 835 835 836 837 837 838 839 840 840 841 841 842 842 843 843 844 844 845 845 845 846 846 846 846
731 733 728 730 745 748 749 752 750 762 774 771 774 763 752 755 751 751 744 741 741 743 747 749 760 754 753 765 767 779 786 781 782 784 790 798 798 800 803 805 806 807 809 810 810 811 811 812 813 814 815 815 816 819 821 822 824 825 826 826 827 827 828 829 829 830 831 832 832 833 834 834 835 835 836 836 837 838 839 840 840 841 841 842 842 843 843 843 844 844 845 845 846 846 846 846 846
729 730 727 728 737 738 747 756 757 765 762 757 767 760 751 750 748 749 745 742 741 743 747 753 763 762 764 764 763 774 778 779 783 784 789 796 799 801 803 805 806 808 809 810 811 811 812 813 813 815 816 816 818 820 822 824 825 827 827 827 828 828 829 829 830 831 831 832 833 834 834 835 835 836 837 837 838 839 840 840 841 841 842 842 843 843 843 844 844 844 845 845 846 846 846 846 846
728 732 730 734 737 736 755 763 761 766 753 748 757 756 750 747 745 748 750 750 749 747 749 756 758 765 776 770 769 772 771 777 778 784 789 793 799 800 803 805 806 808 809 811 811 811 813 814 814 816 817 818 819 821 824 825 827 828 828 828 828 829 830 831 831 832 833 834 834 835 835 836 836 837 838 838 839 840 841 841 842 842 842 843 843 844 844 844 844 845 845 845 846 846 846 846 847
728 736 735 747 757 748 757 761 759 761 753 745 746 747 745 742 742 748 753 754 756 754 754 757 755 772 782 773 781 779 773 779 779 786 789 793 798 800 803 804 806 808 810 811 811 812 814 815 816 817 817 819 820 822 824 826 828 828 829 829 829 830 831 832 833 834 834 835 836 836 837 837 838 838 839 840 840 841 841 842 842 843 843 844 844 844 844 844 845 845 845 845 846 846 846 846 847
724 737 741 755 768 758 758 764 761 757 752 748 745 743 741 740 742 748 754 755 755 755 758 757 758 778 786 779 786 781 777 783 784 787 789 794 797 799 803 804 806 807 810 810 811 813 814 816 817 818 819 820 822 824 825 827 829 829 830 830 830 831 832 833 834 835 836 837 837 838 838 839 839 840 840 841 841 841 842 843 843 843 844 844 845 845 845 845 845 845 846 846 846 846 846 846 846
729 737 747 762 770 769 770 768 763 757 751 746 744 742 740 741 742 747 753 757 755 758 760 756 762 777 784 786 789 783 782 785 785 789 791 794 796 799 803 804 807 808 810 811 813 814 815 817 818 820 821 822 824 826 827 828 829 830 830 831 832 832 833 834 835 836 837 838 838 839 839 840 840 841 841 841 842 842 843 843 843 844 844 845 845 845 846 846 846 846 846 846 846 846 846 847 846
742 739 747 771 780 785 783 772 765 758 750 745 744 740 738 739 744 750 754 758 758 762 763 760 771 777 781 789 788 783 783 785 787 790 792 794 796 799 802 805 807 809 811 812 814 815 815 817 818 821 822 824 825 827 828 829 830 830 831 831 832 833 834 835 836 837 838 839 839 840 840 841 841 841 842 842 842 843 844 844 844 845 845 845 845 846 846 846 847 846 847 846 847 847 846 847 847
751 748 751 778 788 788 780 773 769 758 751 751 750 742 736 739 747 755 757 761 760 764 764 764 772 774 785 793 787 782 782 786 788 790 793 795 797 800 802 805 808 810 812 814 815 816 817 818 819 821 823 825 826 827 829 829 830 830 832 832 833 834 835 837 837 838 839 840 840 840 841 841 842 842 842 842 843 844 844 845 845 845 845 846 846 846 847 847 847 847 847 847 847 847 847 847 847
748 748 754 781 786 781 775 775 774 764 760 755 751 741 736 742 750 753 756 759 760 768 767 762 765 769 787 793 785 783 784 786 789 792 794 796 799 801 803 805 809 811 813 815 816 817 819 820 821 823 824 825 826 828 829 830 831 831 832 833 834 836 836 838 838 839 840 840 841 841 842 843 843 843 843 843 844 844 845 845 845 846 846 846 846 847 847 847 847 847 847 847 847 847 847 847 846
739 736 745 776 780 776 778 780 777 773 769 754 745 740 739 745 748 746 751 763 766 767 763 754 759 773 787 790 790 788 785 787 791 794 794 797 801 802 805 806 809 812 814 816 817 819 820 822 823 824 825 826 827 828 829 830 831 832 833 834 835 836 837 839 839 840 841 841 842 842 843 844 844 844 844 844 845 845 845 846 846 847 847 847 847 847 847 847 847 847 847 847 847 847 846 846 846
729 727 733 759 768 769 776 779 773 774 770 751 744 741 743 745 741 746 751 764 767 754 754 755 757 776 788 790 793 787 784 788 791 795 796 799 801 804 807 807 810 812 815 816 818 820 821 823 823 825 826 827 828 828 830 831 832 833 834 835 836 837 838 839 840 841 841 842 842 843 844 844 845 845 845 846 845 846 846 847 847 847 847 847 847 847 847 847 847 847 847 847 847 846 846 846 846
718 725 737 751 760 767 773 775 769 771 767 750 743 740 749 748 739 750 749 753 761 750 753 762 758 768 778 781 785 781 784 789 791 795 797 800 802 805 807 808 812 813 815 817 818 820 821 823 824 825 826 827 828 829 831 831 833 834 835 836 837 838 838 839 840 841 842 842 843 843 844 844 845 845 846 846 846 847 846 847 848 848 848 848 848 848 848 847 847 847 847 847 846 846 846 845 845
714 729 747 753 755 760 763 770 769 767 762 749 744 742 755 757 745 748 743 745 759 756 756 760 756 760 769 773 777 779 785 789 791 795 797 801 803 805 808 809 812 813 816 817 818 820 821 823 824 825 826 828 829 829 831 832 833 834 835 836 837 838 838 839 840 841 842 842 843 843 844 845 845 846 846 846 847 847 847 848 848 848 848 848 848 848 848 848 847 847 847 847 846 846 846 845 845
725 738 751 756 754 751 747 755 755 752 754 750 747 745 754 761 755 749 749 755 760 760 759 759 760 761 766 772 777 781 786 790 792 795 798 801 803 805 807 809 811 813 815 817 819 820 821 823 824 825 827 828 829 830 831 832 834 835 836 836 837 838 838 840 840 841 842 842 843 843 844 845 845 846 846 847 847 848 848 848 849 849 848 848 849 849 849 848 848 847 847 846 846 846 846 845 845
732 740 751 756 750 742 733 736 739 741 749 748 745 745 750 757 756 756 764 769 764 769 771 767 772 772 772 775 779 784 786 790 792 795 797 799 803 805 806 808 811 812 814 817 818 820 821 823 823 825 826 828 829 830 831 832 833 835 836 837 837 838 839 840 841 841 841 841 842 843 844 845 845 845 846 847 847 848 849 849 849 849 848 848 849 849 849 848 848 847 846 846 846 845 845 845 845
727 732 753 752 739 738 729 729 734 735 740 745 748 745 749 751 751 759 771 775 772 777 778 777 782 780 778 778 779 784 785 789 792 793 796 798 801 803 805 807 809 812 814 816 818 820 821 822 823 824 826 827 829 829 830 832 833 835 836 837 837 838 839 839 840 841 840 840 841 842 844 844 845 845 846 847 848 848 848 848 848 848 848 848 847 847 847 847 846 845 845 846 845 845 845 845 845
726 730 750 742 731 740 734 729 731 731 735 742 747 747 752 748 746 759 768 777 781 777 774 776 781 779 779 780 780 783 785 788 791 792 795 798 800 801 803 806 809 811 813 816 817 819 820 822 823 824 825 826 828 829 830 831 833 835 835 836 837 838 838 839 839 840 840 840 840 841 843 844 844 845 845 846 847 847 846 846 846 846 845 845 846 846 845 844 844 843 843 843 844 844 844 845 846
728 733 737 732 732 741 735 728 730 731 735 741 746 751 754 748 752 762 767 781 782 770 767 769 773 775 777 779 780 782 784 787 789 791 794 797 799 800 803 806 809 811 813 815 816 818 820 821 822 823 825 826 827 828 829 831 832 834 834 834 837 837 837 837 838 838 839 839 839 840 842 843 843 844 845 846 846 844 843 843 843 842 840 841 843 844 844 844 843 842 842 842 842 843 844 845 846
734 737 730 729 731 737 734 729 731 731 737 745 748 749 749 755 764 764 769 782 773 759 762 766 769 772 774 777 780 782 785 787 789 791 793 796 798 800 803 805 808 811 812 814 815 818 819 820 822 822 824 825 826 827 828 830 831 833 834 834 835 836 836 836 836 838 839 840 839 839 840 842 842 843 845 845 844 840 839 841 843 842 839 840 841 842 842 843 843 842 841 841 841 842 842 843 844
733 741 734 731 731 734 733 730 732 733 740 744 742 747 752 763 769 764 769 774 763 757 760 764 768 770 773 777 780 783 785 787 788 791 793 795 797 799 802 804 807 809 811 813 815 816 818 819 820 821 823 824 825 826 827 828 830 832 833 834 834 835 835 835 835 835 837 838 838 838 839 840 840 842 845 845 842 841 840 841 842 842 839 839 839 840 841 841 842 842 841 840 840 840 838 837 840
734 741 735 732 733 733 731 731 735 736 739 740 743 755 760 761 764 767 769 766 761 761 763 765 769 772 775 778 780 783 785 786 788 790 793 795 797 799 801 803 806 808 809 811 813 815 817 818 819 821 822 823 824 825 826 827 828 830 831 832 833 834 834 835 835 835 835 835 836 838 839 839 838 840 843 844 845 845 844 842 840 840 839 838 837 838 839 839 840 840 840 839 839 838 836 835 837
734 736 735 735 737 733 733 735 737 739 739 742 753 764 763 758 763 773 770 764 764 763 766 769 771 776 777 779 781 784 785 786 787 790 792 795 797 798 800 803 805 807 809 810 812 813 815 817 819 820 821 822 824 824 825 827 827 828 829 830 831 832 833 833 835 837 838 837 836 838 840 839 839 840 842 844 847 847 844 842 838 837 837 836 836 837 837 837 838 838 838 838 838 837 836 836 837
727 731 734 735 738 734 734 739 739 741 742 746 759 768 764 757 766 782 773 763 765 767 772 773 774 779 779 780 783 785 785 785 787 789 792 794 796 798 799 802 804 806 809 810 811 813 815 817 818 819 821 822 823 824 825 826 827 827 828 829 830 831 831 832 833 834 835 835 836 837 838 838 840 841 841 842 844 844 843 841 839 837 836 835 836 836 836 836 836 836 836 836 837 836 837 836 837
724 729 737 739 739 738 738 742 743 744 748 747 753 764 764 761 772 782 772 764 766 770 775 775 777 780 779 781 785 786 785 786 788 788 791 794 795 798 799 801 804 806 808 809 810 812 814 815 817 818 820 821 822 824 824 825 826 827 828 828 829 829 830 830 831 832 832 833 834 834 835 836 838 839 839 840 841 842 841 840 839 838 836 835 835 835 835 834 834 834 834 834 834 834 835 834 835
725 729 746 750 742 746 745 743 743 745 752 744 747 770 775 774 779 775 767 765 767 772 777 777 778 780 781 783 786 787 786 786 788 789 791 793 796 798 799 801 803 805 807 809 810 811 813 814 816 817 819 820 821 823 823 825 825 826 827 827 828 829 829 829 829 830 830 832 832 832 833 834 835 836 837 838 839 839 838 838 838 837 837 836 835 834 833 833 832 831 831 831 831 831 831 831 832
732 734 748 757 758 761 747 741 744 746 751 741 751 787 791 780 777 770 766 766 769 777 779 778 779 780 782 785 787 788 786 788 788 789 792 793 796 798 799 801 802 805 806 808 810 811 812 813 815 816 818 819 820 822 823 823 824 825 826 827 828 828 828 829 828 829 829 830 831 831 832 833 834 835 835 836 835 835 835 836 836 836 836 835 834 833 832 832 831 829 829 829 828 828 827 828 828
740 745 751 760 774 771 747 742 748 752 751 738 756 791 792 780 775 768 766 766 772 780 780 779 780 781 784 786 788 788 787 789 788 789 792 793 796 797 799 801 802 804 805 807 810 810 812 812 814 816 817 818 819 821 822 823 824 824 825 826 827 827 828 828 828 828 828 828 829 830 831 832 833 833 833 833 831 832 833 834 835 835 834 833 832 832 831 830 829 828 827 826 826 825 825 825 825
743 761 774 771 778 774 752 744 746 756 755 741 760 788 787 778 773 767 765 768 774 781 782 780 780 782 785 787 788 789 788 788 789 790 791 793 795 796 799 801 802 805 805 807 809 810 812 812 814 815 816 818 819 820 821 822 823 824 825 825 826 826 826 827 827 827 827 828 828 829 830 830 830 830 830 830 830 831 832 832 833 833 832 831 830 830 829 828 827 826 825 825 824 823 823 823 824
749 765 781 776 780 778 762 751 743 749 756 752 763 780 783 777 769 764 764 767 773 780 782 780 781 782 784 787 788 788 790 790 790 790 792 794 796 798 800 802 804 806 806 808 809 810 812 812 814 815 816 818 819 820 821 822 823 823 824 824 825 825 825 826 826 826 826 826 827 828 828 828 828 828 828 828 829 829 830 830 830 830 830 829 828 828 827 826 825 824 823 823 822 822 822 822 822
761 765 772 769 776 778 770 762 747 742 754 761 764 770 777 774 767 764 762 765 772 777 780 780 781 783 784 786 788 788 791 792 791 790 792 796 798 800 801 803 804 806 808 809 810 811 812 813 814 815 817 818 819 820 821 821 822 822 823 823 824 824 825 826 826 826 826 825 826 827 827 827 828 827 828 827 827 827 827 828 828 828 828 827 826 826 825 825 824 823 822 821 821 821 821 820 820
764 768 768 766 769 774 773 766 752 749 758 765 770 772 773 770 766 766 762 762 769 773 776 779 780 783 785 785 786 788 790 792 791 791 793 797 799 801 802 803 805 806 808 809 810 811 812 813 814 815 817 818 819 820 820 821 821 822 823 823 824 824 825 825 825 825 825 825 825 826 826 826 827 826 826 826 826 826 826 826 826 826 826 825 824 824 823 822 822 821 821 820 820 820 820 819 819
750 754 754 761 766 769 771 762 748 749 762 769 775 775 770 771 769 766 763 759 765 771 772 776 779 782 784 784 785 787 789 790 789 791 794 796 799 800 801 803 804 806 808 809 810 811 812 813 814 816 817 818 819 820 820 821 821 822 822 823 823 824 825 824 825 824 824 825 824 825 825 825 825 825 825 825 825 825 825 825 825 824 824 823 823 822 822 821 820 820 819 819 818 818 819 818 818
732 738 742 753 760 762 765 761 744 740 759 770 772 773 770 770 769 764 763 760 764 770 772 774 777 780 782 783 784 787 787 786 787 790 792 795 797 799 801 802 804 806 807 809 810 811 812 813 815 815 816 817 818 819 820 820 821 821 821 822 823 823 824 824 824 824 824 824 824 824 824 823 823 823 823 823 823 823 823 824 823 823 822 822 822 821 821 820 819 819 819 818 818 817 817 817 817
723 730 740 750 753 752 750 750 743 738 757 767 763 769 771 767 767 762 761 764 767 768 771 774 774 777 779 780 783 785 784 782 785 788 789 793 795 797 800 801 803 805 806 808 809 810 812 812 814 815 816 817 818 819 819 819 820 820 821 822 823 823 823 823 823 823 824 824 824 823 822 821 821 821 822 822 822 822 822 822 822 822 821 821 820 820 819 819 819 819 818 817 817 817 816 816 817
723 725 736 748 744 743 743 741 740 740 756 767 762 769 775 766 762 761 760 764 765 762 765 768 770 774 776 777 781 783 783 782 783 785 787 790 792 794 798 799 802 804 805 807 808 809 810 811 813 814 815 816 818 818 818 819 819 820 821 822 822 823 822 823 823 823 823 823 823 822 821 820 821 821 822 822 822 821 821 821 821 821 820 820 819 819 818 817 818 818 817 816 816 816 816 816 817
730 728 734 744 736 740 752 748 744 743 749 760 762 770 776 768 763 762 759 759 759 758 760 762 764 770 772 772 775 779 781 782 783 783 784 787 789 792 795 798 800 802 804 805 807 808 809 810 812 813 814 816 817 818 818 818 819 819 821 821 821 822 822 822 822 822 822 822 822 822 821 821 821 821 821 821 821 821 821 821 820 820 819 819 818 818 817 816 817 817 816 816 816 816 815 815 816
737 731 732 738 731 732 745 747 745 744 744 749 760 779 782 773 776 772 759 757 759 758 759 762 763 764 767 768 770 773 776 779 781 782 782 783 786 789 792 796 798 800 802 804 805 807 808 810 811 812 813 814 815 816 817 818 818 819 820 820 821 821 821 821 822 822 821 821 822 821 821 821 821 821 821 821 821 821 820 820 819 819 818 818 817 817 817 816 816 816 815 815 815 815 815 814 814
741 734 726 726 724 727 735 743 749 760 764 751 758 796 800 779 781 780 768 765 763 761 762 765 765 763 766 768 769 771 772 774 777 778 779 780 783 787 790 793 795 797 800 803 804 806 808 809 810 812 812 813 814 815 816 817 817 819 819 819 820 820 821 821 821 821 821 822 821 821 821 821 821 821 821 821 821 820 820 819 819 818 817 817 816 816 816 815 815 815 815 815 815 814 814 813 813
746 730 718 717 718 723 730 737 751 768 772 749 748 788 804 790 786 783 780 780 770 764 764 764 764 764 765 766 767 768 770 772 775 775 776 777 780 783 787 790 793 795 798 801 803 805 807 808 809 811 812 812 814 814 815 816 816 817 818 819 819 820 820 820 820 821 821 821 821 821 821 821 821 821 821 821 820 820 820 819 819 818 817 816 816 815 815 815 814 814 814 814 814 814 813 813 812
743 716 710 718 718 722 721 727 746 754 752 746 742 762 788 796 790 778 778 786 780 772 768 763 762 763 764 763 763 765 767 769 772 774 774 774 777 780 784 788 790 793 796 799 802 804 806 807 808 810 811 812 813 814 814 815 816 817 818 818 818 819 819 820 820 820 820 821 821 821 821 821 821 821 821 820 820 820 819 819 818 817 817 816 815 815 815 815 814 813 813 813 813 812 812 812 811
729 705 707 716 718 722 718 723 740 740 749 762 749 750 780 790 779 773 774 783 786 778 769 763 761 760 761 761 760 761 762 764 767 771 772 772 774 778 781 785 789 792 795 798 800 803 805 806 808 809 810 811 812 813 814 814 816 816 817 817 818 819 819 819 820 820 820 820 820 821 821 821 821 820 820 820 819 819 818 818 817 817 816 816 815 814 814 814 813 813 812 812 812 811 811 811 810
714 703 710 712 715 722 722 729 736 737 756 773 754 749 778 786 775 777 779 779 779 771 761 759 758 757 757 758 758 758 759 761 764 766 768 770 772 776 780 784 788 790 793 796 799 802 804 806 807 808 809 811 811 812 813 814 815 815 816 817 817 818 818 819 819 819 820 820 820 820 820 820 820 820 819 819 819 818 818 817 817 816 816 815 815 814 814 813 813 813 812 811 811 810 810 810 809
704 707 715 717 719 724 731 734 738 755 771 768 750 743 766 783 773 766 768 764 760 759 758 755 753 754 754 754 755 755 757 759 761 763 765 768 771 775 779 782 785 788 791 795 797 800 803 805 806 808 809 810 811 812 812 813 814 815 816 816 817 817 818 818 818 819 819 819 820 820 820 820 819 819 819 818 818 817 817 817 816 816 815 814 814 813 813 813 812 812 812 811 811 810 810 810 809
707 716 722 732 737 741 753 751 753 781 785 761 745 737 754 779 767 747 746 744 743 749 752 751 750 751 750 750 751 751 753 756 759 762 764 766 770 773 777 780 783 787 790 792 796 798 801 804 806 807 808 809 810 811 812 812 813 814 815 816 816 817 817 817 818 818 819 819 819 819 820 819 819 819 819 818 817 817 816 816 815 815 814 814 813 813 813 812 812 811 811 811 811 810 810 810 809
713 725 731 751 765 770 782 778 772 786 779 752 741 739 752 764 747 730 730 730 731 733 734 737 742 745 745 745 747 747 749 753 756 760 762 764 768 770 774 778 780 784 788 790 793 796 799 802 804 806 808 808 809 810 811 811 812 813 814 815 815 816 816 817 817 818 818 818 819 819 819 819 818 818 818 817 817 816 816 815 815 814 813 813 812 812 812 811 811 810 810 810 809 809 809 809 809
722 732 740 761 777 789 799 792 783 785 770 745 735 744 757 754 732 720 719 716 716 719 721 725 729 735 739 738 741 744 745 749 754 757 760 762 764 768 771 775 778 782 785 787 790 793 797 800 803 805 806 807 808 809 809 810 811 812 813 814 815 815 815 816 816 817 817 818 818 818 818 818 818 817 817 817 816 816 815 815 814 813 813 812 812 811 811 811 810 809 809 809 808 808 808 808 808
724 723 733 751 759 777 792 789 786 783 767 747 739 750 761 756 734 713 707 705 706 713 717 717 721 725 731 733 736 742 744 746 750 754 757 759 762 766 769 772 776 780 783 785 787 790 794 798 801 803 805 806 807 808 808 809 810 811 812 813 814 814 814 815 815 816 816 817 817 817 817 817 817 817 816 816 816 815 815 814 813 813 812 812 811 811 810 810 810 809 808 808 808 807 807 806 806
724 714 731 742 735 747 766 767 762 761 763 755 748 747 740 733 725 706 705 710 709 714 715 716 723 724 727 734 737 741 744 744 748 752 755 758 761 764 767 771 775 778 781 783 784 787 791 795 798 801 803 804 805 807 807 808 809 810 810 812 812 813 813 814 814 815 815 815 816 815 816 816 816 815 815 815 815 814 814 813 813 812 811 811 810 810 810 809 809 809 808 807 807 807 806 805 804
721 724 739 727 706 721 751 759 746 749 771 764 748 748 733 726 728 711 709 719 717 719 719 719 725 725 729 736 740 745 745 742 746 750 753 756 759 763 766 769 773 776 779 780 781 784 788 792 796 799 801 803 804 805 806 807 807 808 809 810 811 812 812 813 813 813 814 814 814 814 815 815 814 814 814 814 814 814 813 812 812 811 811 810 809 809 809 808 808 808 807 807 806 806 805 804 804
718 731 728 710 705 714 734 756 757 762 780 763 745 752 746 746 746 721 714 727 726 726 727 724 725 729 733 735 738 742 742 742 745 747 751 754 757 761 764 767 771 773 777 779 780 783 786 790 793 796 799 800 802 803 804 805 806 807 808 809 810 811 811 812 812 812 813 813 813 813 813 813 813 813 813 813 813 812 812 812 811 810 810 809 809 808 808 807 807 807 806 806 805 805 804 803 803
700 708 698 706 735 742 737 752 766 774 782 767 750 748 743 743 743 729 727 733 731 730 730 729 729 731 734 734 734 735 738 746 749 747 750 752 754 759 762 765 768 770 774 777 779 782 785 789 791 793 796 798 800 801 802 804 804 805 807 807 809 810 810 811 811 811 811 812 812 812 812 812 812 812 812 812 812 811 811 810 810 809 809 808 808 807 807 806 806 805 805 805 804 804 803 802 802
692 695 693 701 723 734 732 738 753 769 780 774 763 758 748 734 724 727 732 729 726 730 730 730 729 728 731 732 732 732 735 744 748 746 748 749 752 756 759 763 765 767 771 775 778 781 784 787 789 791 794 795 798 800 800 802 802 803 805 806 808 808 809 810 809 810 810 810 811 811 810 811 810 810 810 810 810 810 809 809 808 808 807 807 807 806 806 805 805 804 804 803 803 802 802 801 800
709 715 718 715 712 716 724 731 738 753 768 773 770 770 759 729 711 720 727 722 722 725 727 729 728 726 726 727 730 731 731 736 739 741 744 747 750 754 756 760 763 766 770 772 775 779 783 785 787 789 791 793 795 797 799 800 801 802 803 805 806 807 808 808 808 809 809 809 809 809 808 808 808 808 808 808 809 808 808 808 807 807 806 806 805 805 805 804 804 803 803 802 802 801 801 800 799
705 715 720 719 714 718 738 749 740 736 750 760 764 772 762 729 711 717 720 720 721 721 725 728 727 725 724 724 726 727 729 731 733 737 741 744 747 752 754 758 761 765 768 770 773 777 781 784 785 787 789 790 792 795 797 798 799 801 802 803 805 806 807 807 807 808 808 808 807 807 806 806 806 806 806 806 806 806 806 806 805 805 805 804 804 803 803 803 802 802 801 801 801 800 800 799 798